COSMOS 2569 (703K)

Last updated on Sun Aug 31 2025 00:02:35 GMT+0000 (Coordinated Universal Time)

1 57517U 23114A 25241.84499597 .00000002 00000+0 00000+0 0 9995 2 57517 65.1342 82.4574 0008784 294.5894 65.3870 2.13103917 16054
UTC large
Height (km)
Speed (km/s)
/
Latitude / Longitude
Inclination (degrees)
Orbital Period (minutes)
Azimuth
Elevation
Range (km)
Doppler Factor

Next 0 passes for location: London (51.5072 / 0.1276)

Sorry there are no passes over London.